EA3E-2 Weather Reports


Display with metric or nautical units.
time (UTC)temp
F
wind
direction
speed
MPH
gust
MPH
rain 1hr
in
rain 24hr
in
rain mn
in
humidity
%
barometer
mb
20260510052504 51 0 0.0 0.0 0.00 0.57 0.03 94 1010.8
20260510051604 51 0 0.0 0.0 0.00 0.57 0.03 94 1010.8
20260510045804 51 0 0.0 0.0 0.00 0.57 0.03 94 1010.7
20260510044904 51 0 0.0 0.0 0.00 0.57 0.03 94 1010.7
20260510044004 52 241 0.0 3.0 0.00 0.57 0.03 94 1010.8
20260510043104 51 242 2.0 4.0 0.00 0.57 0.03 94 1010.9
20260510042204 51 244 2.0 4.0 0.00 0.57 0.03 94 1010.7
20260510041304 51 250 1.0 4.0 0.00 0.57 0.03 94 1010.7
20260510040404 51 252 0.0 4.0 0.00 0.57 0.03 94 1010.8
20260510035504 52 0 0.0 0.0 0.00 0.57 0.03 94 1010.8
20260510034604 52 0 0.0 0.0 0.00 0.57 0.03 94 1010.9
20260510033704 52 0 0.0 0.0 0.00 0.57 0.03 94 1010.7
20260510031904 52 0 0.0 0.0 0.00 0.57 0.03 94 1010.9
20260510031004 52 0 0.0 0.0 0.00 0.57 0.03 94 1011.1
20260510030104 52 0 0.0 0.0 0.00 0.57 0.03 93 1011.0
20260510025204 53 0 0.0 0.0 0.00 0.57 0.03 93 1011.1
20260510024304 53 0 0.0 0.0 0.00 0.57 0.03 93 1011.0
20260510023404 54 0 0.0 0.0 0.00 0.57 0.03 93 1011.0
20260510022504 54 0 0.0 0.0 0.00 0.57 0.03 93 1011.0
20260510021604 54 0 0.0 0.0 0.00 0.57 0.03 93 1011.0
20260510014904 55 0 0.0 0.0 0.00 0.57 0.03 93 1011.0
20260510014004 55 0 0.0 0.0 0.00 0.57 0.03 93 1011.0
20260510013104 55 0 0.0 0.0 0.00 0.57 0.03 93 1011.1
20260510012204 55 0 0.0 0.0 0.00 0.57 0.03 93 1011.2
20260510011304 56 0 0.0 0.0 0.00 0.57 0.03 93 1011.2
20260510010404 56 0 0.0 0.0 0.00 0.57 0.03 93 1011.2
20260510005507 56 0 0.0 0.0 0.00 0.57 0.03 93 1011.3
20260510003704 56 0 0.0 0.0 0.00 0.57 0.03 93 1011.7
20260510002804 56 0 0.0 0.0 0.00 0.57 0.03 93 1011.8
20260510001904 56 0 0.0 0.0 0.01 0.57 0.03 93 1011.9
20260510001004 56 0 0.0 0.0 0.01 0.57 0.03 93 1012.0
20260510000104 56 0 0.0 0.0 0.01 0.57 0.03 93 1012.1
20260509235204 56 0 0.0 0.0 0.01 0.57 0.03 93 1012.4
20260509234304 56 0 0.0 0.0 0.01 0.57 0.03 93 1012.5
20260509231604 56 0 0.0 0.0 0.02 0.56 0.02 93 1012.9
20260509225804 56 253 2.0 4.0 0.02 0.56 0.02 93 1013.0
20260509224904 56 252 1.0 4.0 0.02 0.56 0.02 93 1013.1
20260509224004 56 252 0.0 4.0 0.02 0.55 0.02 93 1013.0
20260509223104 56 0 0.0 0.0 0.04 0.55 0.02 93 1013.0
20260509222204 56 240 1.0 3.0 0.06 0.55 0.02 93 1013.0
20260509221304 56 239 0.0 3.0 0.06 0.54 0.01 93 1012.9
20260509220404 56 0 0.0 0.0 0.06 0.54 0.00 93 1013.0
20260509215504 56 0 0.0 0.0 0.07 0.54 0.54 92 1013.1
20260509213704 56 238 3.0 3.0 0.06 0.52 0.52 92 1012.9
20260509211904 56 223 3.0 6.0 0.04 0.50 0.50 92 1012.7
20260509211004 56 231 2.0 5.0 0.03 0.49 0.49 92 1012.6
20260509205204 56 242 1.0 4.0 0.01 0.46 0.46 91 1012.5
20260509204304 56 244 3.0 7.0 0.00 0.46 0.46 91 1012.2
20260509203404 56 252 5.0 9.0 0.01 0.46 0.46 91 1011.7
20260509202504 56 250 4.0 9.0 0.01 0.46 0.46 91 1011.6
20260509201604 56 251 4.0 7.0 0.01 0.46 0.46 91 1011.5
20260509200704 56 249 2.0 7.0 0.02 0.46 0.46 92 1011.6
20260509194904 56 266 4.0 8.0 0.09 0.46 0.46 92 1011.2
20260509193104 56 314 4.0 10.0 0.19 0.45 0.45 92 1010.6
20260509192204 56 359 5.0 9.0 0.22 0.45 0.45 92 1010.2
20260509191304 56 29 5.0 10.0 0.23 0.44 0.44 91 1010.0
20260509190404 57 40 5.0 10.0 0.23 0.43 0.43 91 1010.6
20260509185504 57 40 2.0 9.0 0.23 0.40 0.40 90 1010.8
20260509184604 57 9 0.0 5.0 0.21 0.35 0.35 90 1011.2
20260509183704 57 0 0.0 0.0 0.20 0.30 0.31 89 1011.6
20260509182804 58 0 0.0 0.0 0.19 0.24 0.24 88 1011.8
20260509181904 57 0 0.0 0.0 0.21 0.22 0.22 87 1012.1
20260509180104 58 231 1.0 3.0 0.20 0.20 0.20 87 1012.2
20260509175204 59 231 1.0 4.0 0.16 0.16 0.17 88 1012.1
20260509174304 60 225 0.0 5.0 0.13 0.13 0.13 88 1012.1
20260509173404 61 187 0.0 4.0 0.09 0.09 0.09 89 1012.1
20260509171604 62 0 0.0 0.0 0.01 0.01 0.01 88 1012.1
20260509165804 62 176 1.0 6.0 0.00 0.00 0.00 87 1012.0
20260509164904 62 146 1.0 6.0 0.00 0.00 0.00 86 1011.9
20260509164007 62 138 0.0 4.0 0.00 0.00 0.00 85 1011.7
20260509163104 62 137 1.0 4.0 0.00 0.00 0.00 85 1011.4
20260509162204 62 135 2.0 7.0 0.00 0.00 0.00 84 1011.0
20260509161304 62 136 3.0 7.0 0.00 0.00 0.00 85 1010.9
20260509160404 62 142 3.0 5.0 0.00 0.00 0.00 85 1010.7
20260509155504 62 141 3.0 5.0 0.00 0.00 0.00 84 1011.1
20260509154604 62 137 3.0 5.0 0.00 0.00 0.00 83 1011.4
20260509152804 63 128 2.0 5.0 0.00 0.00 0.00 82 1011.3
20260509151904 63 136 1.0 7.0 0.00 0.00 0.00 81 1011.4
20260509151007 64 138 1.0 5.0 0.00 0.00 0.00 81 1011.9
20260509150104 64 137 3.0 5.0 0.00 0.00 0.00 81 1012.2
20260509144304 64 115 3.0 6.0 0.00 0.00 0.00 81 1012.1
20260509143404 64 114 1.0 6.0 0.00 0.00 0.00 80 1012.1
20260509142504 65 121 2.0 3.0 0.00 0.00 0.00 79 1012.2
20260509141604 64 122 3.0 7.0 0.00 0.00 0.00 79 1012.2
20260509140704 65 125 4.0 8.0 0.00 0.00 0.00 79 1012.2
20260509134903 65 113 5.0 9.0 0.00 0.00 0.00 79 1012.2
20260509133104 65 128 5.0 11.0 0.00 0.00 0.00 78 1012.3
20260509132204 65 125 6.0 10.0 0.00 0.00 0.00 79 1012.2
20260509131304 65 113 5.0 11.0 0.00 0.00 0.00 79 1012.4
20260509130404 65 100 4.0 9.0 0.00 0.00 0.00 79 1012.4
20260509125507 65 93 4.0 8.0 0.00 0.00 0.00 80 1012.5
20260509124604 65 122 4.0 10.0 0.00 0.00 0.00 81 1012.8
20260509123704 65 128 4.0 10.0 0.00 0.00 0.00 81 1013.2
20260509121904 64 133 5.0 9.0 0.00 0.00 0.00 81 1013.5
20260509121004 65 133 5.0 12.0 0.00 0.00 0.00 81 1013.5
20260509120104 65 139 4.0 12.0 0.00 0.00 0.00 79 1013.5
20260509115204 65 132 5.0 12.0 0.00 0.00 0.00 79 1013.4
20260509113403 65 128 5.0 9.0 0.00 0.00 0.00 78 1013.4
20260509111604 65 132 4.0 9.0 0.00 0.00 0.00 79 1013.6
20260509105804 65 121 5.0 11.0 0.00 0.00 0.00 80 1013.8
20260509104904 65 129 5.0 11.0 0.00 0.00 0.00 80 1013.8
20260509104003 65 142 5.0 11.0 0.00 0.00 0.00 78 1014.0
20260509103104 65 134 4.0 11.0 0.00 0.00 0.00 76 1014.0
20260509102204 66 134 3.0 9.0 0.00 0.00 0.00 76 1013.8
20260509101304 66 132 4.0 11.0 0.00 0.00 0.00 76 1014.0
20260509100404 66 144 3.0 10.0 0.00 0.00 0.00 78 1013.8
20260509094604 66 133 1.0 8.0 0.00 0.00 0.00 78 1013.6
20260509093704 65 123 1.0 3.0 0.00 0.00 0.00 78 1013.6
20260509092803 65 113 2.0 7.0 0.00 0.00 0.00 80 1013.4
20260509091003 65 130 1.0 7.0 0.00 0.00 0.00 80 1013.2
20260509090103 65 161 1.0 6.0 0.00 0.00 0.00 82 1013.2
20260509085205 64 213 0.0 7.0 0.00 0.00 0.00 82 1013.5
20260509084303 64 217 0.0 2.0 0.00 0.00 0.00 82 1013.7
20260509083404 63 0 0.0 0.0 0.00 0.00 0.00 82 1013.8
20260509082503 63 0 0.0 0.0 0.00 0.00 0.00 83 1013.8
20260509081603 62 0 0.0 0.0 0.00 0.00 0.00 83 1013.8
20260509080703 62 0 0.0 0.0 0.00 0.00 0.00 83 1013.9
20260509075803 61 0 0.0 0.0 0.00 0.00 0.00 84 1013.9
20260509074903 61 0 0.0 0.0 0.00 0.00 0.00 85 1014.0
20260509074003 60 0 0.0 0.0 0.00 0.00 0.00 86 1013.9
20260509073103 59 0 0.0 0.0 0.00 0.00 0.00 87 1014.1
20260509072203 58 0 0.0 0.0 0.00 0.00 0.00 89 1014.1
20260509071303 58 0 0.0 0.0 0.00 0.00 0.00 90 1014.1
20260509065503 56 0 0.0 0.0 0.00 0.00 0.00 91 1014.2
20260509064603 55 0 0.0 0.0 0.00 0.00 0.00 92 1014.1
20260509063703 55 0 0.0 0.0 0.00 0.00 0.00 92 1014.1
20260509062803 55 0 0.0 0.0 0.00 0.00 0.00 92 1014.2
20260509061903 54 0 0.0 0.0 0.00 0.00 0.00 91 1014.2
20260509061003 54 0 0.0 0.0 0.00 0.00 0.00 91 1014.3
20260509055203 53 0 0.0 0.0 0.00 0.00 0.00 92 1014.2
20260509054303 53 0 0.0 0.0 0.00 0.00 0.00 92 1014.3